Regional Weather Roundup
Issued by NWS Jackson, KY

Home | Current Version | Previous Version | Text Only | Print | Product List | Glossary On
Versions: 1 2 3 4 5 6 7 8 9 10 11 12 13 14 15 16 17 18 19 20 21 22 23 24 25 26 27 28
000
ASUS43 KJKL 230510
RWRJKL

EAST KENTUCKY HOURLY WEATHER ROUNDUP
NATIONAL WEATHER SERVICE JACKSON KY
1200 AM EST THU FEB 23 2017

NOTE: "FAIR" INDICATES FEW OR NO CLOUDS BELOW 12,000 FEET WITH
NO SIGNIFICANT WEATHER AND/OR OBSTRUCTIONS TO VISIBILITY.

* THESE REPORTS ARE NOT UNDER NWS QUALITY CONTROL AND MAY NOT
  REPORT WEATHER SUCH AS PRECIPITATION AND FOG.

KYZ079-080-083-085-087-088-110-112-115-119-120-230600
...EASTERN KENTUCKY...

CITY           SKY/WX    TMP DP  RH WIND       PRES   REMARKS
JACKSON        CLEAR     54  51  90 S5        29.88F
LONDON         CLEAR     53  50  89 S3        29.88F
SOMERSET*      PTCLDY    54  54 100 CALM      29.88S
MONTICELLO*    PTCLDY    56  54  93 NE6       29.89S
WILLIAMSBURG*  CLEAR     55  55 100 SE7       29.88F
MIDDLESBORO*   FOG       47  47 100 CALM      29.92S VSB<1/4
HARLAN APT*    CLOUDY    50  46  87 CALM      29.91S VSB 1/4
PIKE CO APT*     N/A     55  55 100 S3        29.89S
BIG SANDY APT* MOCLDY    56  55  97 CALM      29.88F
MOREHEAD APT*  CLEAR     55  54  94 S7        29.87F
ASHLAND*       CLOUDY    54  52  94 SE3       29.85S
$$

KYZ035-036-041-042-044-050-067-078-099-230600
...CENTRAL KENTUCKY...

CITY           SKY/WX    TMP DP  RH WIND       PRES   REMARKS
MT STERLING*   PTCLDY    55  54  94 SW6       29.86F
FLEMING/MASON* MOCLDY    57  55  92 S6        29.85S
DANVILLE*      PTCLDY    54  54 100 CALM      29.86F
LEXINGTON      PTCLDY    59  54  83 S8        29.84F
FRANKFORT      CLOUDY    63  54  72 S8        29.81F
LOUISVILLE     MOCLDY    66  55  67 S10       29.80S
LEBANON*         N/A     59  55  88 S9        29.84F
GLASGOW*       CLEAR     58  55  89 CALM      29.84F
BOWLING GREEN  CLEAR     57  54  89 S6        29.84S
$$

KYZ091>093-OHZ055-061-077-WVZ005-015-034-035-042-230600
...SOUTHERN OHIO/WEST VIRGINIA...

CITY           SKY/WX    TMP DP  RH WIND       PRES   REMARKS
COVINGTON      PTCLDY    59  55  87 S7        29.79F
COLUMBUS       PTCLDY    58  54  86 S8        29.80F
DAYTON         PTCLDY    57  54  89 S12       29.78F
WILMINGTON     CLOUDY    57  56  96 S9        29.80F
HUNTINGTON     CLOUDY    51  50  96 CALM      29.86F FOG
CHARLESTON     FOG       51  50  96 CALM      29.87F VSB 1/2
PINEVILLE*     CLOUDY    48  45  90 MISG      29.96S FOG
BECKLEY        CLOUDY    50  48  93 CALM      29.92S
BLUEFIELD      MOCLDY    50  47  89 W3        29.94S
LOGAN CO APT*    N/A     55  54  94 S5        29.89F
$$

VAZ002-007-008-TNZ017-027-036-066-071-230600
...SOUTHWEST VIRGINIA/EAST TENNESSEE...

CITY           SKY/WX    TMP DP  RH WIND       PRES   REMARKS
WISE*          CLEAR     50  50 100 CALM      29.94F
JONESVILLE*    FOG       48  48 100 CALM      29.94S VSB<1/4
ABINGDON*      CLEAR     50  50 100 CALM      29.93S FOG
BRISTOL        FOG       47  47 100 CALM      29.92S VSB 1/4
MORRISTOWN*    FOG       50  50 100 CALM      29.90S VSB 0
SEVIERVILLE*   CLOUDY    54  54 100 CALM      29.90S VSB 1/4
KNOXVILLE      FOG       53  51  93 NE3       29.89S VSB 3/4
LAFOLLETTE*    CLOUDY    55  55 100 CALM      29.93S FOG
OAK RIDGE      FOG       52  50  93 CALM      29.91S VSB 1/4
CROSSVILLE     FOG       53  52  96 SE3       29.89F VSB 1/4
NASHVILLE      CLEAR     56  54  93 S5        29.85S
$$

...KEY TO REMARKS...
VSB - VISIBILITY IN MILES
WCI - WIND CHILL INDEX
HX  - HEAT INDEX

$$




USA.gov is the U.S. government's official web portal to all federal, state and local government web resources and services.